[Date Prev][Date Next][Thread Prev][Thread Next] - [Date Index][Thread Index][Author Index]
2 Line ISS Keps 7-12
- Subject: [sarex] 2 Line ISS Keps 7-12
- From: "Dave Larsen PhD" <doc@xxxxxxxxxxx>
- Date: Sat, 12 Jul 2003 06:36:25 -0700
ISS
1 25544U 98067A 03193.48167378 .00070853 00000-0 84434-3 0 2161
2 25544 51.6335 253.0016 0008151 2.1919 128.5937 15.60393218264958
----
Via the sarex mailing list at AMSAT.ORG courtesy of AMSAT-NA.
To unsubscribe, send "unsubscribe sarex" to Majordomo@amsat.org
AMSAT Home